Total_Precipitation_Accumulation
0.03 0.05 0.09 0.14 0.16 0.18 0.24 0.31 0.35 0.38 0.34 0.42 0.52 0.64 0.88 1.03 1.23 1.31 1.41 1.63 1.84 2.01 2.19 2.51 2.86 3.16 3.65 3.68 3.55 3.63 3.81 4.05 4.20 4.49 4.60 4.88 5.23 5.45 5.57 5.56 5.39 5.41 5.33 5.43
0.07 0.09 0.10 0.13 0.14 0.16 0.25 0.40 0.43 0.40 0.36 0.45 0.61 0.77 0.97 1.14 1.22 1.22 1.39 1.58 1.76 2.16 2.53 2.75 2.90 3.29 3.77 3.94 3.93 3.96 4.14 4.49 4.76 5.05 5.52 5.83 6.14 6.38 6.54 6.56 6.11 5.84 5.71 5.61
0.08 0.09 0.08 0.10 0.11 0.14 0.19 0.29 0.38 0.41 0.43 0.51 0.71 1.00 1.14 1.27 1.41 1.60 1.83 2.00 2.09 2.31 2.70 2.80 2.86 3.24 3.58 3.82 3.95 4.10 4.36 4.83 5.40 5.82 6.25 6.61 6.82 6.86 6.67 6.36 6.25 6.07 5.90 5.75
0.08 0.06 0.06 0.09 0.12 0.15 0.18 0.21 0.32 0.37 0.48 0.60 0.70 1.20 1.51 1.59 1.74 2.02 2.23 2.24 2.31 2.42 2.61 2.75 2.86 3.14 3.48 3.78 3.97 4.31 4.83 5.50 6.05 6.47 7.01 7.52 7.63 7.35 7.00 6.55 6.13 5.89 5.65 5.34
0.09 0.08 0.10 0.10 0.13 0.16 0.18 0.17 0.26 0.32 0.38 0.54 0.75 1.20 1.99 2.07 2.14 2.35 2.51 2.30 2.31 2.23 2.28 2.54 2.69 2.90 3.37 3.68 3.95 4.31 4.90 5.63 6.32 7.09 7.73 8.14 8.00 7.63 7.17 6.51 5.93 5.47 5.10 4.76
0.10 0.08 0.09 0.09 0.11 0.14 0.14 0.18 0.26 0.32 0.40 0.66 0.72 1.13 1.90 2.24 2.41 2.53 2.43 2.19 2.11 2.02 2.05 2.18 2.36 2.67 3.12 3.41 3.66 4.06 4.71 5.48 6.13 6.70 7.17 7.39 7.29 7.11 6.56 5.87 5.27 4.85 4.55 4.24
0.17 0.15 0.11 0.09 0.09 0.14 0.17 0.25 0.53 0.72 0.84 0.86 0.70 1.05 1.78 2.02 2.13 2.03 1.98 2.02 1.88 1.94 1.93 1.95 2.10 2.35 2.73 2.89 3.27 3.69 4.14 4.82 5.25 5.57 5.91 6.08 6.16 5.97 5.64 5.15 4.70 4.29 3.82 3.48
0.29 0.27 0.15 0.10 0.10 0.17 0.20 0.23 0.59 0.93 0.95 0.94 0.90 1.38 1.94 1.92 1.83 1.70 1.66 1.72 1.74 1.81 1.87 1.90 2.05 2.24 2.52 2.66 2.84 3.03 3.30 3.70 3.86 3.91 4.15 4.42 4.48 4.45 4.32 4.04 3.68 3.39 3.06 2.70
0.41 0.30 0.16 0.11 0.10 0.14 0.19 0.21 0.31 0.58 0.68 1.08 1.34 1.79 2.23 2.02 1.92 1.84 1.79 1.64 1.58 1.58 1.69 1.88 2.00 2.04 2.07 2.12 2.21 2.31 2.49 2.64 2.70 2.79 2.89 3.04 3.08 3.08 3.05 2.92 2.66 2.47 2.29 2.02
0.36 0.31 0.17 0.12 0.11 0.14 0.17 0.24 0.37 0.65 1.10 1.38 1.62 2.23 2.81 2.63 2.21 1.89 1.68 1.49 1.41 1.47 1.58 1.77 1.91 1.90 1.90 1.83 1.91 1.98 2.08 2.13 2.14 2.20 2.20 2.16 2.21 2.22 2.23 2.10 2.00 1.95 1.86 1.73
0.32 0.37 0.23 0.16 0.21 0.24 0.26 0.32 0.47 0.72 0.89 1.37 1.89 2.61 2.67 2.88 2.68 2.19 1.85 1.69 1.59 1.49 1.56 1.74 1.75 1.71 1.71 1.69 1.74 1.79 1.78 1.77 1.74 1.72 1.75 1.74 1.68 1.70 1.78 1.78 1.68 1.64 1.56 1.43
0.34 0.47 0.44 0.29 0.24 0.23 0.26 0.33 0.50 0.96 1.08 1.12 1.79 2.80 2.58 2.82 2.89 2.58 2.28 2.13 2.00 1.71 1.66 1.69 1.65 1.59 1.52 1.55 1.59 1.64 1.58 1.53 1.57 1.48 1.42 1.43 1.45 1.45 1.49 1.48 1.36 1.32 1.35 1.26
0.36 0.59 0.95 0.90 0.68 0.41 0.33 0.35 0.43 0.59 0.95 1.21 1.86 2.99 2.90 2.73 2.78 2.70 2.44 2.34 2.36 2.20 2.03 1.86 1.68 1.64 1.59 1.55 1.48 1.36 1.36 1.35 1.39 1.39 1.35 1.30 1.33 1.37 1.36 1.33 1.29 1.23 1.26 1.23
0.32 0.61 1.18 1.54 1.13 0.69 0.51 0.41 0.43 0.58 1.03 1.26 1.66 2.37 2.65 2.66 2.74 2.76 2.79 2.80 2.81 2.53 2.27 2.05 1.79 1.70 1.63 1.54 1.49 1.40 1.36 1.26 1.25 1.29 1.30 1.30 1.30 1.33 1.32 1.33 1.36 1.30 1.21 1.14
0.45 0.86 0.87 0.77 0.68 0.60 0.51 0.49 0.49 0.53 0.68 1.08 1.52 1.95 2.39 2.54 2.69 2.97 3.10 3.02 2.80 2.41 2.18 2.10 2.00 1.90 1.77 1.61 1.54 1.46 1.37 1.24 1.21 1.20 1.23 1.26 1.24 1.24 1.20 1.24 1.26 1.26 1.24 1.14
0.52 0.86 0.88 0.77 0.60 0.66 0.64 0.65 0.67 0.64 0.71 1.02 1.48 2.15 2.45 2.66 2.84 2.94 2.94 3.00 2.97 2.59 2.33 2.19 2.05 1.92 1.85 1.70 1.61 1.52 1.43 1.36 1.32 1.29 1.28 1.23 1.24 1.20 1.18 1.18 1.20 1.13 1.07 1.07
0.57 0.88 1.22 1.14 0.70 0.92 1.27 1.04 0.91 0.95 1.01 1.20 1.60 1.99 2.14 2.33 2.49 2.77 2.98 2.95 2.94 2.71 2.45 2.22 2.10 2.03 1.96 1.90 1.80 1.67 1.51 1.44 1.25 1.18 1.15 1.10 1.08 1.07 1.08 1.05 1.04 1.05 1.08 1.08
0.50 0.88 1.16 1.19 1.31 1.77 1.50 0.99 0.88 1.05 1.16 1.18 1.38 1.47 1.73 1.94 2.16 2.48 2.71 2.90 2.93 2.78 2.61 2.39 2.18 2.09 2.03 1.94 1.78 1.60 1.41 1.25 1.10 1.06 1.04 0.98 0.94 0.94 1.01 0.99 0.99 1.03 1.05 1.02
0.40 0.82 1.23 1.42 1.76 1.82 1.49 0.98 0.87 1.20 1.44 1.17 1.23 1.30 1.35 1.47 1.72 2.26 2.34 2.44 2.58 2.63 2.57 2.43 2.22 2.07 1.96 1.77 1.61 1.46 1.25 1.13 1.06 1.00 0.98 0.90 0.84 0.91 0.94 0.90 0.92 0.98 0.99 0.98
0.46 0.74 1.22 1.48 1.96 2.25 1.83 0.91 0.65 1.05 1.93 1.37 1.24 1.35 1.37 1.54 1.88 1.99 1.84 1.87 2.01 2.17 2.28 2.23 2.04 1.87 1.78 1.59 1.44 1.39 1.25 1.11 1.04 0.98 0.96 0.90 0.90 0.91 0.94 0.95 0.93 0.87 0.89 0.88
0.89 1.04 1.31 1.56 1.95 2.01 1.15 0.73 0.88 1.83 2.21 1.50 1.24 1.37 1.61 1.86 1.82 1.53 1.38 1.52 1.65 1.75 1.90 1.91 1.83 1.79 1.64 1.43 1.36 1.45 1.46 1.26 1.04 0.94 0.92 0.95 0.97 0.93 0.90 0.93 0.91 0.84 0.76 0.80
1.06 1.30 1.48 1.66 2.10 2.11 0.95 0.81 1.36 1.65 1.30 1.16 1.16 1.22 1.30 1.35 1.24 1.15 1.19 1.31 1.35 1.46 1.57 1.68 1.77 1.69 1.57 1.43 1.40 1.43 1.43 1.25 1.06 1.00 1.00 0.97 0.91 0.80 0.78 0.90 0.87 0.80 0.78 0.82
1.03 1.24 1.40 1.64 1.95 1.53 0.93 0.88 0.91 0.91 1.03 1.04 1.11 1.11 1.04 1.06 1.08 1.04 1.11 1.26 1.35 1.38 1.45 1.54 1.60 1.57 1.51 1.40 1.40 1.39 1.30 1.13 1.07 1.09 1.06 1.01 0.90 0.82 0.82 0.87 0.85 0.79 0.80 0.78
1.07 0.88 1.02 1.23 1.28 1.16 1.04 0.92 0.86 0.88 0.91 0.93 1.00 1.03 0.98 0.98 0.97 1.00 1.10 1.23 1.29 1.26 1.29 1.39 1.47 1.46 1.41 1.31 1.28 1.27 1.15 1.13 1.18 1.15 1.06 1.03 0.95 0.86 0.81 0.79 0.74 0.74 0.75 0.75
1.06 0.96 1.10 1.31 1.30 1.23 1.22 1.10 1.01 1.01 1.00 0.96 1.00 1.04 1.00 0.95 0.98 1.01 1.11 1.12 1.14 1.16 1.17 1.23 1.37 1.39 1.28 1.18 1.09 1.05 1.11 1.17 1.23 1.14 0.98 0.91 0.86 0.81 0.82 0.77 0.69 0.66 0.64 0.64
0.95 1.03 1.15 1.35 1.23 1.24 1.22 1.08 1.02 1.16 1.22 1.10 1.07 1.01 0.93 0.93 0.94 0.90 0.92 0.94 0.95 1.00 1.06 1.12 1.15 1.18 1.12 1.06 1.03 0.95 1.00 1.06 1.07 1.00 0.88 0.79 0.72 0.72 0.67 0.67 0.66 0.64 0.59 0.54